Hourly Data Report for May 12, 2021

MANIWAKI AIRPORT
QUEBEC
Current Station Operator: ECCC - MSC

46°16'29.000" N
75°59'31.000" W
199.70 m
7034482
71721
WMJ

Download Data

Hourly Data (May 2021)
Hourly Data Report for May 12, 2021
TIME
LST
Temp Definition
°C
Dew Point Definition
°C
Rel Hum Definition
%
Precip. Amount Definition
mm

Wind Dir Definition
10's deg

Wind Spd Definition
km/h
Visibility Definition
km
Stn Press Definition
kPa
Hmdx Definition


Wind Chill Definition


Weather Definition


00:00 3.8 3.3 96 0.0 33 9   99.27     LegendNANA
01:00 4.4 3.2 92 0.0 34 9   99.32     LegendNANA
02:00 3.6 2.4 92 0.0 36 8   99.38     LegendNANA
03:00 5.1 3.0 86 0.0 33 11   99.42     LegendNANA
04:00 4.6 2.8 88 0.0 34 10   99.48     LegendNANA
05:00 4.2 2.2 87 0.0 33 9   99.55     LegendNANA
06:00 5.7 2.2 78 0.0 32 10   99.64     LegendNANA
07:00 7.2 2.6 73 0.0 32 12   99.70     LegendNANA
08:00 8.4 1.1 60 0.0 33 10   99.75     LegendNANA
09:00 10.7 2.1 55 0.0 34 14   99.77     LegendNANA
10:00 12.7 0.9 44 0.0 35 15   99.78     LegendNANA
11:00 14.3 -0.2 37 0.0 33 11   99.75     LegendNANA
12:00 15.3 -2.4 29 0.0 32 13   99.74     LegendNANA
13:00 15.2 -6.6 22 0.0 31 17   99.72     LegendNANA
14:00 16.0 -9.0 17 0.0 29 17   99.71     LegendNANA
15:00 16.2 -10.1 15 0.0 34 18   99.72     LegendNANA
16:00 15.9 -10.9 15 0.0 33 24   99.74     LegendNANA
17:00 15.8 -8.1 19 0.0 33 16   99.73     LegendNANA
18:00 15.6 -7.9 19 0.0 34 13   99.74     LegendNANA
19:00 13.6 -5.8 25 0.0 35 8   99.77     LegendNANA
20:00 7.9 -1.4 52 0.0 22 2   99.79     LegendNANA
21:00 5.8 -0.9 62 0.0 0 1   99.80     LegendNANA
22:00 5.8 -1.4 60 0.0 29 5   99.81     LegendNANA
23:00 9.5 -1.9 45 0.0 30 8   99.81     LegendNANA

Notes on Data Quality.

Legend

  • E = Estimated
  • M = Missing
  • NA = Not Available*
  • [empty] = Indicates an unobserved value
Date modified: